Location: Arboucave
(43.6130°N, 0.4343°W)
Time: 12:23:53
(UTC+00:00)

Cosmos 2233 Rocket - Pass Details

Date: 17 November 2025
Orbit: 952 x 989 km, 82.9° (Epoch: 06 December)

Event Time Altitude Azimuth Distance (km) Brightness Sun altitude
Rises 16:58:06 0° 180° (S) 3,674 7.3 -4.7°
Reaches altitude 10° 17:00:36 10° 179° (S) 2,733 6.6 -5.1°
Maximum altitude 17:06:51 75° 95° (E) 1,024 4.0 -6.2°
Drops below altitude 10° 17:13:11 10° 11° (N) 2,760 6.1 -7.3°
Sets 17:15:43 0° 10° (N) 3,712 6.7 -7.7°
